Temp
80 81 81 82 79 75 75 71 67 65 65 65 66 65 65 64 64 64 64 65 65 64 63 61 61 61 59 57 55 55 53 53
79 79 78 78 75 74 73 68 66 66 67 66 66 64 65 64 66 66 66 66 66 64 63 62 61 59 57 57 54 52 51 52
75 76 77 76 73 72 69 69 67 70 72 70 69 67 66 67 67 66 66 66 66 65 61 60 59 57 56 55 53 50 50 51
73 75 74 74 72 71 68 69 69 70 70 72 70 69 66 65 64 63 65 66 66 64 62 60 58 56 54 53 52 51 47 49
75 73 73 73 70 69 70 69 72 73 72 70 67 67 64 65 64 65 64 64 64 65 63 60 57 56 54 53 56 51 49 46
76 74 75 72 68 66 69 71 73 72 72 70 68 67 65 65 63 62 63 61 63 63 62 59 57 55 54 53 52 51 50 47
77 76 74 72 71 71 69 70 73 72 71 70 68 65 64 62 62 60 61 60 60 60 60 56 55 54 53 52 52 51 48 47
75 72 72 72 72 72 71 73 71 70 69 68 66 65 63 62 61 59 59 58 56 55 55 54 53 53 53 52 50 50 48 46
73 73 72 72 71 71 71 72 70 69 67 66 65 64 61 61 59 59 57 55 55 56 54 54 53 53 51 51 49 48 49 45
73 73 72 70 70 68 68 70 70 68 66 64 62 61 60 57 59 59 57 56 58 54 53 52 52 51 50 49 47 47 47 44
72 73 71 71 70 68 68 69 69 68 65 62 61 60 59 59 59 57 56 55 55 53 52 51 51 50 50 48 46 46 45 43
72 73 73 72 71 69 68 69 69 65 64 62 59 59 58 59 58 57 55 54 54 53 52 51 50 50 49 46 45 46 45 43
73 73 72 71 69 68 67 66 66 65 64 61 58 59 58 57 58 57 55 53 53 52 52 51 51 50 47 46 44 46 43 42
74 73 72 70 69 67 66 65 65 65 64 60 58 58 59 57 57 56 55 54 52 51 51 50 49 48 46 46 45 44 43 42
74 73 71 69 69 67 66 64 64 64 62 59 58 57 57 57 57 55 53 53 51 50 50 50 49 48 47 47 46 43 42 42
73 72 69 69 68 67 67 64 63 61 60 57 55 57 58 57 54 53 52 51 51 51 50 49 48 47 48 43 43 40 39 38
72 72 72 70 68 66 65 63 61 58 57 56 57 57 57 55 53 52 50 50 50 50 48 48 45 48 37 37 38 36 38 37
71 70 70 69 68 65 63 61 58 57 56 56 57 56 55 53 53 52 50 48 47 46 46 46 44 41 37 37 35 35 34 34
70 70 69 69 68 64 61 60 58 56 55 55 56 55 53 52 51 50 48 48 46 45 44 44 44 44 37 36 35 32 33 34
MSLP
1011.58 1012.29 1012.86 1013.40 1014.36 1015.63 1016.90 1017.93 1018.70 1019.50 1020.00 1020.34 1020.38 1020.50 1020.27 1021.00 1021.41 1021.60 1022.18 1022.30 1022.41 1022.47 1022.88 1023.27 1023.43 1023.46 1023.91 1024.23 1024.49 1024.44 1024.49 1024.26
1011.67 1012.31 1012.80 1013.44 1014.57 1015.71 1016.71 1017.94 1018.92 1019.45 1019.73 1019.67 1019.65 1020.19 1020.52 1021.09 1021.20 1021.76 1021.82 1022.11 1022.39 1022.49 1022.84 1023.14 1023.41 1023.85 1024.05 1023.94 1024.23 1024.50 1024.57 1024.43
1011.97 1012.60 1012.90 1013.47 1014.64 1015.58 1016.75 1017.82 1018.61 1019.01 1018.91 1019.04 1019.31 1019.67 1020.34 1020.70 1021.00 1021.44 1021.72 1022.15 1022.33 1022.74 1023.21 1023.48 1023.66 1023.92 1024.07 1024.11 1024.23 1024.47 1024.55 1024.56
1011.77 1012.50 1013.11 1013.69 1014.58 1015.48 1016.52 1017.60 1018.19 1018.34 1018.43 1018.67 1019.00 1019.37 1019.93 1020.51 1021.15 1021.62 1021.75 1022.06 1022.39 1022.81 1023.17 1023.47 1023.71 1023.86 1024.05 1024.09 1024.15 1024.29 1024.56 1024.61
1011.02 1012.35 1013.17 1013.78 1014.68 1015.40 1016.21 1017.02 1017.39 1017.66 1017.88 1018.29 1018.85 1019.27 1019.77 1020.06 1020.56 1021.18 1021.65 1022.09 1022.51 1022.69 1022.86 1023.15 1023.41 1023.63 1023.88 1023.86 1023.75 1024.07 1024.26 1024.51
1010.21 1011.65 1012.73 1013.81 1014.87 1015.68 1016.21 1016.50 1016.66 1017.13 1017.60 1018.12 1018.64 1018.97 1019.38 1019.91 1020.62 1021.38 1021.85 1022.19 1022.32 1022.53 1022.60 1022.84 1023.15 1023.42 1023.59 1023.72 1023.78 1023.85 1024.02 1024.33
1010.02 1011.31 1012.76 1013.93 1014.78 1015.17 1015.58 1016.12 1016.37 1016.92 1017.56 1017.93 1018.40 1018.93 1019.51 1020.24 1020.82 1021.38 1021.58 1021.98 1022.33 1022.51 1022.79 1023.17 1023.40 1023.53 1023.67 1023.73 1023.71 1023.80 1023.98 1024.20
1010.32 1011.39 1012.53 1013.31 1013.96 1014.55 1015.11 1015.57 1016.28 1017.08 1017.77 1018.28 1018.78 1019.22 1019.73 1020.33 1020.88 1021.45 1021.95 1022.18 1022.54 1023.01 1023.16 1023.45 1023.64 1023.70 1023.72 1023.68 1023.64 1023.61 1023.65 1023.92
1010.52 1011.40 1012.38 1013.39 1014.11 1014.66 1015.16 1015.70 1016.37 1017.18 1017.92 1018.54 1019.12 1019.58 1020.12 1020.56 1020.99 1021.51 1022.09 1022.63 1022.85 1023.11 1023.37 1023.53 1023.62 1023.66 1023.67 1023.62 1023.53 1023.41 1023.15 1023.46
1010.70 1011.64 1012.52 1013.54 1014.40 1014.91 1015.27 1015.65 1016.30 1017.12 1017.90 1018.60 1019.31 1019.88 1020.36 1020.95 1021.45 1021.70 1022.16 1022.60 1022.77 1023.18 1023.34 1023.48 1023.56 1023.62 1023.65 1023.60 1023.55 1023.34 1023.23 1023.44
1010.65 1011.49 1012.38 1013.28 1014.20 1014.85 1015.35 1015.65 1016.12 1016.94 1017.85 1018.71 1019.49 1020.02 1020.62 1020.98 1021.50 1021.95 1022.33 1022.64 1022.94 1023.26 1023.28 1023.36 1023.50 1023.54 1023.47 1023.37 1023.35 1023.22 1023.36 1023.40
1010.28 1011.10 1012.02 1012.91 1013.83 1014.59 1015.27 1015.69 1016.10 1016.94 1017.80 1018.66 1019.41 1020.02 1020.56 1021.00 1021.20 1021.59 1022.11 1022.56 1022.97 1023.15 1023.22 1023.37 1023.47 1023.42 1023.27 1023.45 1023.55 1023.43 1023.32 1023.33
1009.75 1010.60 1011.51 1012.53 1013.54 1014.42 1015.26 1015.81 1016.25 1017.07 1017.89 1018.72 1019.48 1020.21 1020.62 1020.80 1020.91 1021.36 1021.79 1022.36 1022.70 1022.85 1022.97 1023.13 1023.17 1023.17 1023.32 1023.43 1023.56 1023.42 1023.45 1023.40
1009.08 1009.90 1010.90 1012.04 1013.10 1014.16 1015.13 1015.92 1016.39 1017.05 1017.90 1018.92 1019.79 1020.21 1020.33 1020.64 1020.56 1021.06 1021.63 1022.12 1022.44 1022.55 1022.67 1022.79 1022.86 1022.96 1023.38 1023.47 1023.69 1023.79 1023.84 1023.93
1008.46 1009.20 1010.14 1011.26 1012.55 1013.72 1014.78 1015.64 1016.46 1017.16 1018.13 1019.11 1019.53 1019.89 1020.23 1020.23 1020.62 1020.99 1021.51 1021.90 1022.22 1022.43 1022.48 1022.42 1022.45 1022.72 1023.17 1023.37 1023.46 1023.66 1023.76 1023.71
1007.92 1008.72 1009.87 1011.01 1012.11 1013.32 1014.42 1015.44 1016.45 1017.32 1018.26 1019.05 1019.72 1019.85 1020.02 1020.38 1020.67 1021.10 1021.49 1021.78 1022.02 1022.14 1022.19 1022.17 1022.13 1022.46 1022.97 1023.33 1023.53 1023.59 1023.71 1023.71
1007.85 1008.88 1009.65 1010.64 1011.80 1013.00 1014.19 1015.30 1016.41 1017.55 1018.59 1019.26 1020.03 1019.69 1020.00 1020.54 1020.71 1021.17 1021.49 1021.80 1021.96 1022.08 1022.10 1021.99 1022.06 1022.48 1023.30 1023.67 1023.88 1024.02 1023.91 1023.88
1008.31 1009.02 1009.86 1010.72 1011.63 1012.74 1014.03 1015.36 1016.76 1017.92 1018.70 1019.27 1019.42 1019.66 1020.27 1020.38 1020.73 1020.99 1021.18 1021.53 1021.67 1021.73 1021.85 1021.94 1022.04 1022.59 1023.22 1023.57 1023.72 1024.00 1023.67 1023.80
1008.97 1009.31 1009.90 1010.74 1011.72 1013.03 1014.39 1015.97 1017.30 1018.22 1019.00 1019.61 1020.05 1020.33 1020.55 1020.62 1020.71 1020.91 1020.90 1021.07 1021.24 1021.50 1021.54 1021.64 1021.78 1022.03 1022.60 1023.16 1023.76 1023.92 1023.47 1023.45
Wind_Speed
14 12 11 12 16 15 10 10 11 7 5 5 4 4 5 4 4 5 5 4 4 3 5 4 2 3 4 3 2 3 3 4
8 5 6 8 15 14 13 12 10 6 6 4 4 4 5 4 4 5 5 6 4 3 3 3 2 4 3 1 1 3 3 4
11 8 7 7 14 13 14 13 11 9 6 4 4 5 5 5 5 5 6 4 5 5 4 4 5 3 4 3 3 2 2 4
13 10 7 5 12 14 15 11 11 12 6 6 5 6 4 4 5 4 5 4 5 4 3 2 2 2 2 3 3 4 2 3
15 12 11 10 10 9 12 9 12 10 8 7 8 6 6 5 6 6 6 6 4 3 1 1 0 1 3 3 3 1 2 4
16 15 12 10 9 7 11 16 15 9 6 8 7 3 5 4 5 6 5 6 6 6 6 3 1 1 3 4 5 4 1 2
10 12 12 13 14 15 12 15 10 8 6 3 3 6 6 5 4 4 2 3 2 5 7 6 5 4 5 4 5 3 3 3
11 14 15 15 14 9 8 8 10 8 7 5 6 6 6 5 5 3 5 3 3 5 6 5 4 5 6 6 6 5 4 4
11 12 10 11 9 9 10 10 11 9 7 7 6 7 4 3 6 4 3 2 3 4 3 3 5 6 6 6 4 5 4 3
13 13 12 12 10 8 8 10 11 11 8 7 7 6 6 5 2 3 1 3 1 4 4 4 5 6 6 7 5 6 4 4
13 13 11 12 11 10 7 8 10 11 9 7 6 6 5 5 4 1 2 1 2 3 4 4 5 5 6 6 4 5 6 3
13 13 12 11 10 10 8 8 9 9 8 7 6 5 6 4 5 4 3 2 2 3 4 5 5 6 4 5 7 7 5 5
14 13 12 11 10 9 8 6 7 9 7 6 7 5 6 6 5 5 5 2 2 3 4 5 6 4 6 4 5 5 5 4
14 14 12 12 10 10 10 8 6 8 8 7 5 8 5 4 5 4 4 1 1 3 4 5 6 3 4 3 5 5 5 5
12 11 13 13 11 10 10 9 6 6 7 7 6 1 7 2 1 2 2 0 2 4 5 5 2 4 4 4 3 3 4 5
10 8 8 10 10 10 9 9 7 7 5 4 4 4 2 1 1 1 1 1 3 5 5 6 1 2 3 4 4 4 6 6
4 4 5 8 10 10 8 7 8 8 4 4 2 4 4 3 1 1 2 4 5 4 5 6 2 2 10 8 4 3 5 6
3 6 5 5 6 8 8 8 9 5 5 5 1 3 3 1 1 3 4 4 3 5 6 6 2 4 11 9 6 1 3 6
5 3 4 4 5 8 10 10 7 6 4 4 4 2 1 2 2 5 4 5 4 3 5 6 4 2 14 11 6 3 4 6
Wind_Direction
153 164 154 160 143 137 147 120 123 129 146 172 148 137 95 98 135 111 160 145 162 150 96 90 327 28 47 36 5 344 335 338
127 151 165 148 134 142 145 137 134 161 183 187 147 141 129 129 109 158 175 117 141 48 74 115 125 19 16 297 44 346 337 342
153 194 187 151 146 146 136 152 159 201 191 188 155 136 142 158 133 138 117 166 125 118 56 5 43 17 323 359 18 313 331 8
171 187 174 177 139 144 142 160 171 208 203 147 133 140 121 114 118 150 139 134 129 115 147 103 13 353 349 346 321 310 345 317
168 180 191 180 133 136 147 153 192 205 175 153 154 165 168 180 171 141 137 131 156 206 145 120 68 337 302 276 306 316 308 285
171 174 170 130 128 147 171 195 197 173 162 160 173 168 137 95 86 104 139 165 184 209 209 192 235 292 300 301 284 269 279 302
172 155 148 170 171 191 193 201 152 132 147 136 160 126 119 122 150 147 161 94 39 45 45 38 9 348 337 330 320 332 309 306
179 162 181 169 169 159 142 155 139 149 139 128 107 99 85 89 95 75 44 22 40 35 38 16 356 334 322 312 305 268 249 253
159 153 148 153 162 167 160 172 150 146 142 136 130 112 128 108 84 71 65 22 35 32 1 356 337 331 324 315 308 295 261 236
165 167 159 156 170 174 181 168 160 154 153 128 120 120 94 83 118 112 86 66 307 55 9 348 333 330 324 306 294 290 329 358
177 175 169 167 176 172 186 177 167 156 139 128 138 130 138 141 89 156 107 88 33 329 337 332 322 307 288 293 335 344 346 328
186 183 178 171 170 166 182 191 167 142 147 147 126 130 123 184 178 167 148 109 284 333 330 327 306 291 2 359 343 323 335 357
188 188 175 175 170 169 179 201 163 159 161 143 130 147 207 195 163 167 155 175 301 321 321 299 293 344 354 339 314 314 342 346
195 186 182 175 178 168 184 197 176 174 155 121 167 206 184 194 196 151 153 180 320 314 305 292 292 27 324 343 326 341 327 339
207 197 178 170 178 176 189 173 168 152 135 193 184 77 216 69 39 115 100 299 332 297 289 279 343 13 344 329 304 323 312 311
211 209 166 171 174 178 190 164 168 148 165 111 204 219 101 177 132 149 231 351 281 266 271 277 161 207 263 53 32 3 348 337
172 263 216 187 184 182 175 161 146 113 156 178 252 207 50 354 27 355 297 261 271 290 291 285 215 271 131 116 88 17 331 320
270 209 219 215 184 157 155 133 122 147 161 209 30 48 225 194 331 288 285 280 296 279 273 286 261 116 146 137 131 234 327 284
325 280 196 181 141 133 109 117 152 114 62 8 318 294 268 305 315 267 273 259 252 290 290 286 240 186 160 159 169 245 267 295